Starlink 30119

operational
NORAD ID: 56823 Int'l Des: 2023-079 Owner: SPXS Country: US Constellation: starlink
LEOCIRCULAR

Starlink 30119について

説明を読み込み中...

リアルタイム位置

3D地球を読み込み中...

次回通過

高度履歴

Altitude vs Time

uPlot chart will show altitude changes over time

軌道要素

1 56823U 23079A 25260.25497572 .00000229 00000-0 32020-4 0 9995
2 56823 43.0046 329.9134 0001727 273.5288 86.5357 15.02535608127229
Epoch: Sep 17, 2025 • Age: 22 hours

現在のステータス

高度 564.4 km
速度 7.58 km/s
衛星直下点 -24.26°S, 119.08°E
打ち上げ日 Jun 4, 2023
運用期間 2.2 years
タイプ internet

技術仕様

分類 Payload
質量 730.00 kg
乾燥質量 700.00 kg
総質量 730.00 kg
長さ 0.30 m
直径 4.10 m
スパン 29.00 m
形状 Box + pan
製造者 SPXS
バスタイプ Starlink V2M
フェーズステータス In Orbit
所有者/国 SPXS/US

大規模コンステレーション

Loading constellations...